Weather History for KHST - March, 2013

Change the Weather History Date:

Monday, March 4, 2013

  Actual Average (KMIA) Record (KMIA)
Temperature  
Mean Temperature 55 °F 72 °F  
Max Temperature 66 °F 79 °F 90 °F (2003)
Min Temperature 44 °F 64 °F 39 °F (1927)
Degree Days  
Heating Degree Days 10 1  
Month to date heating degree days 4  
Since 1 July heating degree days 120  
Cooling Degree Days 0 7  
Month to date cooling degree days 28  
Year to date cooling degree days 350  
Growing Degree Days 5 (Base 50)    
Moisture  
Dew Point 42 °F    
Average Humidity 62    
Maximum Humidity 88    
Minimum Humidity 40    
Precipitation  
Precipitation 0.00 in 0.09 in 1.60 in (1965)
Month to date precipitation 0.33  
Year to date precipitation 4.20  
Snow  
Snow 0.00 in - - ()
Month to date snowfall  
Since 1 July snowfall  
Snow Depth -    
Sea Level Pressure  
Sea Level Pressure 30.18 in    
Wind  
Wind Speed 9 mph (NNW)    
Max Wind Speed 14 mph    
Max Gust Speed -    
Visibility 9 miles    
Events      
T = Trace of Precipitation, MM = Missing Value Source: NWS Daily Summary

Daily Weather History Graph

Daily Weather History Graph

Search for Another Location

Airport or City:

Trip Planner

Search our weather history database for the weather conditions in past years. The results will help you decide how hot, cold, wet, or windy it might be!

Date:

Astronomy

Mar. 04, 2013 Rise Set
Actual Time 6:41 AM EST 6:25 PM EST
Civil Twilight 6:18 AM EST 6:48 PM EST
Nautical Twilight 5:51 AM EST 7:14 PM EST
Astronomical Twilight 5:25 AM EST 7:41 PM EST
Moon 12:25 AM EST 11:30 AM EST
Length of Visible Light 12h 29m
Length of Day
11h 43m
Waning Gibbous, 52% of the Moon is Illuminated
Mar 4
Waning Gibbous
Mar 4
Last Quarter
Mar 11
New
Mar 19
First Quarter
Mar 27
Full

Hourly Weather History & Observations

Time (EST) Temp. Windchill Dew Point Humidity Pressure Visibility Wind Dir Wind Speed Gust Speed Precip Events Conditions
12:58 AM - - - N/A% - - North - - N/A   Clear
1:58 AM 50.0 °F - 41.0 °F 71% 30.13 in 7.0 mi WNW 9.2 mph - N/A   Clear
2:58 AM 51.8 °F - 37.4 °F 58% 30.13 in 7.0 mi WNW 13.8 mph - N/A   Clear
3:58 AM 50.0 °F - 39.2 °F 66% 30.14 in 7.0 mi WNW 11.5 mph - N/A   Clear
4:58 AM 50.0 °F - 39.2 °F 66% 30.14 in 7.0 mi WNW 13.8 mph - N/A   Clear
5:58 AM - - - N/A% - - North - - N/A   Clear
5:59 AM 51.8 °F - 41.0 °F 67% 30.14 in 7.0 mi WNW 11.5 mph - N/A   Clear
6:58 AM 44.6 °F 40.2 °F 39.2 °F 81% 30.18 in 7.0 mi WNW 8.1 mph - N/A   Clear
7:58 AM 48.2 °F - 41.0 °F 76% 30.23 in 10.0 mi NNE 4.6 mph - N/A   Clear
8:58 AM 51.8 °F - 39.2 °F 62% 30.23 in 10.0 mi North 12.7 mph - N/A   Clear
9:58 AM 55.4 °F - 39.2 °F 54% 30.23 in 10.0 mi NNW 10.4 mph - N/A   Clear
10:58 AM 57.2 °F - 37.4 °F 48% 30.23 in 10.0 mi North 11.5 mph - N/A   Clear
11:58 AM 60.8 °F - 37.4 °F 42% 30.21 in 10.0 mi NE 8.1 mph - N/A   Clear
12:58 PM 60.8 °F - 39.2 °F 45% 30.18 in 10.0 mi ESE 6.9 mph - N/A   Clear
1:58 PM 64.4 °F - 39.2 °F 40% 30.16 in 10.0 mi Variable 4.6 mph - N/A   Clear
2:58 PM 64.4 °F - 41.0 °F 42% 30.14 in 10.0 mi NNE 4.6 mph - N/A   Clear
3:58 PM 66.2 °F - 41.0 °F 40% 30.13 in 10.0 mi ENE 10.4 mph - N/A   Clear
4:58 PM 64.4 °F - 41.0 °F 42% 30.14 in 10.0 mi ENE 8.1 mph - N/A   Clear
5:58 PM 60.8 °F - 44.6 °F 55% 30.15 in 10.0 mi East 5.8 mph - N/A   Clear
6:58 PM 55.4 °F - 46.4 °F 72% 30.16 in 10.0 mi SSW 2.3 mph - N/A   Clear
7:58 PM 55.4 °F - 46.4 °F 72% 30.19 in 10.0 mi SW 2.3 mph - N/A   Clear
8:58 PM 53.6 °F - 48.2 °F 82% 30.20 in 10.0 mi Calm Calm - N/A   Clear
9:58 PM 51.8 °F - 48.2 °F 88% 30.22 in 10.0 mi West 3.5 mph - N/A   Clear
10:58 PM 51.8 °F - 46.4 °F 82% 30.20 in 10.0 mi West 3.5 mph - N/A   Clear
11:58 PM 53.6 °F - 44.6 °F 72% 30.18 in 10.0 mi NNW 2.3 mph - N/A   Clear